Regional Weather Roundup
Issued by NWS

Home | Current Version | Previous Version | Text Only | Print | Product List | Glossary Off
Versions: 1 2 3 4 5 6 7 8 9 10 11 12 13 14 15 16 17 18 19 20 21 22 23 24 25 26 27 28 29 30 31 32 33 34 35 36 37 38 39 40 41 42 43 44 45 46 47 48 49 50

000
ASUS43 KFSD 180010
RWRSD

WEATHER ROUNDUP FOR SOUTH DAKOTA
NATIONAL WEATHER SERVICE SIOUX FALLS SD
700 PM CDT TUE OCT 17 2017

NOTE: "FAIR" INDICATES FEW OR NO CLOUDS BELOW 12,000 FEET WITH NO
SIGNIFICANT WEATHER AND/OR OBSTRUCTIONS TO VISIBILITY.


SDZ001>005-009-010-012>017-180100-
NORTHWEST AND NORTH CENTRAL SOUTH DAKOTA

CITY           SKY/WX    TMP DP  RH WIND       PRES   REMARKS
BUFFALO          N/A     66  19  16 SW15      29.75S
FAITH            N/A     66  23  19 S13       29.82F
MOBRIDGE       CLEAR     68  44  42 S9        29.77S
$$

SDZ012>016-024>037-041>051-057-063-072>074-180100-
SOUTHWEST AND SOUTH CENTRAL SOUTH DAKOTA

CITY           SKY/WX    TMP DP  RH WIND       PRES   REMARKS
RAPID CTY ARPT CLEAR     66  26  22 W7        29.84S
PIERRE         CLEAR     67  37  33 SE7       29.81F
CUSTER         CLEAR     59  17  19 SW5       29.98F
ELLSWORTH AFB  CLEAR     69  25  19 NE8       29.84S
PHILIP         CLEAR     67  34  29 S6        29.83F
PINE RIDGE     CLEAR     67  24  19 S6        29.90F
SPEARFISH      FAIR      66  23  19 S5        29.89F
WINNER         FAIR      70  40  33 S12       29.86F
$$

SDZ004>011-016>023-039-040-180100-
NORTHEAST SOUTH DAKOTA

CITY           SKY/WX    TMP DP  RH WIND       PRES   REMARKS
ABERDEEN       CLEAR     64  38  38 S8        29.81S
WATERTOWN      CLEAR     59  43  55 S7        29.86F
BROOKINGS      CLEAR     66  41  40 S7        29.89F
SISSETON         N/A     65  45  48 SW14      29.80S
$$

SDZ017-020-022-023-036>040-048>070-180100-
SOUTHEAST SOUTH DAKOTA

CITY           SKY/WX    TMP DP  RH WIND       PRES   REMARKS
SIOUX FALLS    PTCLDY    65  43  44 S8        29.91F
HURON          CLEAR     69  41  36 S10       29.84F
CHAMBERLAIN    CLEAR     62  41  46 SE8       29.85F
MITCHELL       CLEAR     68  41  37 S8        29.88F
YANKTON        CLEAR     71  39  31 SE5       29.92S
$$

ABBREVIATIONS USED IN REMARKS
   TC - TEMPERATURE IN CELSIUS
  WCI - WIND CHILL INDEX
   HX - HEAT INDEX
  VSB - VISIBILITY




USA.gov is the U.S. government's official web portal to all federal, state and local government web resources and services.